Zurück zum Katalog

STARLINK-3393

AktivKommunikationVLEO
NORAD 51132·PAYLOAD·🇺🇸 United States

Gestartet Jan 19, 2022 von Cape Canaveral Space Force Station

Loading…

Nächste Überflüge (nächste 24 Stunden)

TLE

AktuellSource: CelesTrak SupGP

Epoche: Sep 14, 2026, 13:45 UTC

1 51132C 22005AE  26257.57340278  .00041515  00000+0  12265-2 0  2579
2 51132  53.1587 165.5197 0001331  98.1587 229.6368 15.34371288    12

Verfolge STARLINK-3393 in Echtzeit mit AllMySat

Download on the App Store